Regional Weather Roundup
Issued by NWS Cleveland, OH

Home | Current Version | Previous Version | Text Only | Print | Product List | Glossary On
Versions: 1 2 3 4 5 6 7 8 9 10 11 12 13 14 15 16 17 18 19 20 21 22 23 24 25 26 27 28 29 30 31 32 33 34 35 36 37 38 39 40 41 42 43 44 45 46 47 48 49 50
000
ASUS41 KCLE 090712
RWRCLE
OHIO REGIONAL WEATHER ROUNDUP
NATIONAL WEATHER SERVICE WILMINGTON, OH
200 AM EST TUE FEB 09 2016

NOTE: "FAIR" INDICATES FEW OR NO CLOUDS BELOW 12,000 FEET WITH NO
SIGNIFICANT WEATHER AND/OR OBSTRUCTIONS TO VISIBILITY.

OHZ001>008-015>018-024>027-034-035-043-044-090800-
   NORTHWEST OHIO

CITY           SKY/WX    TMP DP  RH WIND       PRES   REMARKS
DEFIANCE       CLOUDY    31  24  75 W9        29.62F WCI  23
FINDLAY        CLOUDY    31  26  82 W15       29.60F WCI  20
TOLEDO EXPRESS CLOUDY    30  27  88 W14       29.58F WCI  19
TOLEDO EXEC    CLOUDY    33  27  78 W13       29.59F WCI  24
LIMA           CLOUDY    27  24  89 W17       29.61F WCI  14
$$

OHZ009>014-019>023-028>033-038-089-090800-
   NORTHEAST OHIO

CITY           SKY/WX    TMP DP  RH WIND       PRES   REMARKS
CLE-HOPKINS    LGT SNOW  32  30  92 W9        29.58F FOG     WCI  24
CLE-LAKEFRONT  CLOUDY    34  32  92 SW10      29.56S FOG     WCI  26
CUY CO. ARPT   NOT AVBL
LORAIN-ELYRIA  CLOUDY    31  28  89 W8        29.57F WCI  23
ASHTABULA      CLOUDY    33  32  96 SW3       29.54F
AKRON-CANTON   CLOUDY    31  29  92 NW6       29.55F FOG     WCI  25
WOOSTER        MOCLDY    26  25  96 W6        29.56F WCI  19
MANSFIELD      CLOUDY    29  26  89 NW9       29.56F WCI  20
YOUNGSTOWN     LGT SNOW  32  30  92 S3        29.54F FOG
$$

OHZ042-051>053-060>062-070>072-077>081-090800-
  SOUTHWEST OHIO

CITY           SKY/WX    TMP DP  RH WIND       PRES   REMARKS
CINC-COVINGTON FLURRIES  21  16  81 W12       29.72F WCI   9
CINC-LUNKEN    LGT SNOW  23  18  81 W12       29.75F WCI  12
HAMILTON       LGT SNOW  22  19  89 W8        29.73F FOG     WCI  12
DAYTON         CLOUDY    23  21  92 W15       29.66F WCI  10
WRIGHT-PAT AFB FLURRIES  24  21  88 W10       29.66F WCI  13
DAYTON GENERAL LGT SNOW  22  18  85 W8        29.67F FOG     WCI  12
WILMINGTON     LGT SNOW  22  19  89 W16       29.66S FOG     WCI   8
$$

OHZ036-037-039>041-045>050-054>059-063>069-073>076-082>088-090800-
  CENTRAL AND SOUTHEAST OHIO

CITY           SKY/WX    TMP DP  RH WIND       PRES   REMARKS
COLUMBUS       LGT SNOW  30  29  96 W14       29.61S FOG     WCI  19
OSU AIRPORT    LGT SNOW  29  26  89 W14       29.61S FOG     WCI  18
BOLTON FIELD   LGT SNOW  27  25  90 W9        29.63S WCI  18
RICKENBACK AFB LGT SNOW  28  26  93 W15G21    29.62S WCI  17
NEWARK         LGT SNOW  33  29  85 MISG      29.58F FOG
MARION         CLOUDY    29  25  85 W13       29.60F FOG     WCI  19
LANCASTER      LGT SNOW  29  26  89 W13G18    29.61S FOG     WCI  19
ZANESVILLE     LGT SNOW  34  31  88 W3        29.58S FOG
NEW PHILLY     CLOUDY    32  30  92 CALM      29.57F FOG
$$



USA.gov is the U.S. government's official web portal to all federal, state and local government web resources and services.